This is the latest recevied weather packets stored in our database for station/object KB0BS-13. If no packets are shown the sender has not sent any weather packets the latest 10 day(s).
| Time | Temp. | Humidity | Pressure | Rain* | Wind** | Luminosity | Snow |
|---|---|---|---|---|---|---|---|
| 1778017635 | 1.67° C | 98% | 1008.9 hPa | 0 mm | - | 214 W/m² | - |
| 1778017332 | 1.67° C | 97% | 1009.1 hPa | 0 mm | - | 180 W/m² | - |
| 1778017029 | 1.11° C | 97% | 1009.2 hPa | 1.78 mm | - | 103 W/m² | - |
| 1778016727 | 1.11° C | 97% | 1009.2 hPa | 1.78 mm | - | 103 W/m² | - |
| 1778016422 | 1.67° C | 95% | 1009 hPa | 1.78 mm | - | 59 W/m² | - |
| 1778016120 | 2.22° C | 94% | 1008.9 hPa | 1.27 mm | - | 59 W/m² | - |
| 1778015816 | 2.78° C | 93% | 1009.1 hPa | 0 mm | - | 57 W/m² | - |
| 1778015514 | 2.78° C | 92% | 1009 hPa | 0 mm | - | 79 W/m² | - |
| 1778015210 | 2.78° C | 91% | 1008.7 hPa | 0 mm | - | 102 W/m² | - |
| 1778014907 | 2.78° C | 91% | 1008.8 hPa | 0 mm | - | 72 W/m² | - |
| 1778014604 | 2.78° C | 92% | 1008.6 hPa | 0 mm | - | 79 W/m² | - |
| 1778014303 | 3.33° C | 92% | 1008.5 hPa | 0 mm | - | 146 W/m² | - |
| 1778013999 | 2.78° C | 93% | 1008.4 hPa | 0 mm | - | 110 W/m² | - |
| 1778013697 | 2.78° C | 93% | 1008.3 hPa | 0 mm | - | 174 W/m² | - |
| 1778013394 | 2.78° C | 94% | 1008.4 hPa | 0 mm | - | 182 W/m² | - |
| 1778013091 | 2.78° C | 95% | 1008.5 hPa | 0 mm | - | 174 W/m² | - |
| 1778012786 | 3.33° C | 95% | 1008.4 hPa | 0 mm | - | 214 W/m² | - |
| 1778012482 | 3.33° C | 95% | 1008.4 hPa | 0 mm | - | 244 W/m² | - |
| 1778012179 | 2.78° C | 97% | 1008.3 hPa | 0 mm | - | 670 W/m² | - |
| 1778011877 | 2.78° C | 97% | 1008.4 hPa | 0 mm | - | 267 W/m² | - |
| 1778011575 | 2.22° C | 96% | 1008.3 hPa | 0 mm | - | 178 W/m² | - |
| 1778011271 | 2.22° C | 97% | 1008.4 hPa | 0 mm | - | 81 W/m² | - |
| 1778010968 | 2.22° C | 97% | 1008.3 hPa | 0 mm | - | 124 W/m² | - |
| 1778010665 | 2.22° C | 96% | 1008.1 hPa | 0 mm | - | 120 W/m² | - |
| 1778010363 | 2.22° C | 96% | 1008.3 hPa | 1.78 mm | - | 92 W/m² | - |
* Rain latest hour (hover to see other rain measurements)
** Current wind speed in m/s (hover to see current wind gust speed)